Tracking 19795 objects as of 17-Jul-2019
HD Live streaming from Space Station
objects crossing your sky now

RAX-2

Track RAX-2 now!
10-day predictions
RAX-2 is classified as:


NORAD ID: 37853
Int'l Code: 2011-061D
Perigee: 445.4 km
Apogee: 681.3 km
Inclination: 101.7 °
Period: 95.8 minutes
Semi major axis: 6934 km
RCS: 0.0758 m2 (small)
Launch date: October 28, 2011
Source: United States (US)
Launch site: AIR FORCE WESTERN TEST RANGE (AFWTR)

Uplink (MHz):
Downlink (MHz): 437.345
Beacon (MHz):
Mode: 9600bps GMSK
Call sign:
Status: Inactive

aabbcc
Your satellite tracking list
Your tracking list is empty




NASA's NSSDC Master Catalog

Two Line Element Set (TLE):
1 37853U 11061D   19197.65449647  .00000970  00000-0  60415-4 0  9993
2 37853 101.7094  99.1149 0170133   7.7521 352.6259 15.03469885420692
Source of the keplerian elements: AFSPC